176  
ASUS45 KBOI 231610  
RWRID  
 
IDAHO REGIONAL WEATHER ROUNDUP  
NATIONAL WEATHER SERVICE BOISE ID  
1000 AM MDT THU MAR 23 2017  
 
NOTE: "FAIR" INDICATES FEW OR NO CLOUDS BELOW 12000 FEET  
WITH NO SIGNIFICANT WEATHER AND/OR S TO VISIBILITY
 
 
IDZ012-014-231700-  
SOUTHWEST IDAHO  
 
 
CITY SKY/WX TMP DP RH WIND PRES REMARKS
 
BOISE SUNNY 42 31 64 NW17 30.01R  
CALDWELL SUNNY 44 33 65 W17G23 30.04R  
MOUNTAIN HOME SUNNY 44 33 66 NW26G32 29.98R  

 
 
IDZ016-017-231700-  
SOUTHCENTRAL IDAHO  
 
 
CITY SKY/WX TMP DP RH WIND PRES REMARKS
 
BURLEY CLOUDY 37 31 78 W20G32 29.89R WCI 27  
JEROME PTSUNNY 37 33 85 W17G25 29.92R WCI 27  
TWIN FALLS PTSUNNY 38 30 73 W22G33 29.92R WCI 27  

 
 
IDZ019>023-231700-  
SOUTHEAST IDAHO  
 
 
CITY SKY/WX TMP DP RH WIND PRES REMARKS
 
IDAHO FALLS CLOUDY 39 34 82 SW3 29.83R  
POCATELLO CLOUDY 39 36 89 SW20 29.87R WCI 29  
REXBURG CLOUDY 38 33 82 CALM 29.82R  

 
 
IDZ006-010-011-018-031-032-231700-  
CENTRAL IDAHO MOUNTAINS  
 
 
CITY SKY/WX TMP DP RH WIND PRES REMARKS
 
MCCALL SUNNY 35 23 61 NW7 29.95R WCI 29  
HAILEY MOSUNNY 45 25 45 NW12 29.87S  
STANLEY N/A 27 24 89 CALM 29.94R  
SALMON CLOUDY 45 25 45 CALM 29.94S  
CHALLIS SUNNY 43 26 51 N8 29.92R  

 
 
IDZ002-004-006-007-026-231700-  
NORTHERN IDAHO  
 
 
CITY SKY/WX TMP DP RH WIND PRES REMARKS
 
LEWISTON FOG 39 38 96 N3 30.10R VSB 1/4  
LOWELL N/A 41 38 89 CALM 30.10R  
COEUR D'ALENE SUNNY 39 32 76 S12 30.05R WCI 32  
MULLAN PASS FLURRIES 24 24 100 MISG 29.95S  

 
 
 
CLICK HERE TO GO TO PREVIOUS BULLETINS.

The Nexlab ID Page Main Text Page